Yuma MCAS, AZ

7:33 PM MST on November 19, 2017 (GMT -0700)
Yuma Marine Corps Air Station

Weather History for KNYL - January, 2012

Change the Weather History Date:

Friday, January 6, 2012

  Actual Average Record
Temperature  
Mean Temperature 64 °F 58 °F  
Max Temperature 77 °F 68 °F 79 °F (2006)
Min Temperature 51 °F 47 °F 24 °F (1913)
Degree Days  
Heating Degree Days 1 7  
Month to date heating degree days 3 46  
Since 1 July heating degree days 368 350  
Cooling Degree Days 0 0  
Month to date cooling degree days 3 0  
Year to date cooling degree days 3 0  
Growing Degree Days 14 (Base 50)    
Moisture  
Dew Point 28 °F    
Average Humidity 29    
Maximum Humidity 43    
Minimum Humidity 14    
Precipitation  
Precipitation 0.00 in 0.02 in 0.55 in (1965)
Month to date precipitation 0.00 0.10  
Year to date precipitation 0.00 0.10  
Sea Level Pressure  
Sea Level Pressure 29.97 in    
Wind  
Wind Speed 5 mph (NE)    
Max Wind Speed 16 mph    
Max Gust Speed 20 mph    
Visibility 10 miles    
Events      
T = Trace of Precipitation, MM = Missing Value Source: NWS Daily Summary

Daily Weather History Graph

Daily Weather History Graph

Search for Another Location

Airport or City:

Trip Planner

Search our weather history database for the weather conditions in past years. The results will help you decide how hot, cold, wet, or windy it might be!

Date:

Astronomy

Jan. 06, 2012 Rise Set
Actual Time 7:41 AM MST 5:47 PM MST
Civil Twilight 7:14 AM MST 6:14 PM MST
Nautical Twilight 6:43 AM MST 6:44 PM MST
Astronomical Twilight 6:13 AM MST 7:14 PM MST
Moon 3:42 PM MST (1/6) 5:23 AM MST (1/6)
Length of Visible Light 10h 59m
Length of Day
10h 05m
Waxing Gibbous, 93% of the Moon is Illuminated
Jan 6
Waxing Gibbous
Jan 9
Full
Jan 16
Last Quarter
Jan 23
New
Jan 30
First Quarter

Hourly Weather History & Observations

Time (MST) Temp. Dew Point Humidity Pressure Visibility Wind Dir Wind Speed Gust Speed Precip Events Conditions
12:55 AM 55.9 °F 28.0 °F 34% 29.99 in 10.0 mi NNE 4.6 mph - N/A   Clear
1:55 AM 54.0 °F 28.0 °F 37% 29.98 in 10.0 mi NE 4.6 mph - N/A   Clear
2:55 AM 54.0 °F 27.0 °F 35% 29.98 in 10.0 mi NE 4.6 mph - N/A   Clear
3:55 AM 53.1 °F 27.0 °F 37% 29.96 in 10.0 mi NNE 8.1 mph - N/A   Clear
4:55 AM 53.1 °F 26.1 °F 35% 29.97 in 10.0 mi NNE 4.6 mph - N/A   Clear
5:55 AM 52.0 °F 27.0 °F 38% 29.97 in 10.0 mi NNE 5.8 mph - N/A   Clear
6:55 AM 53.1 °F 26.1 °F 35% 29.97 in 10.0 mi NE 8.1 mph - N/A   Partly Cloudy
7:55 AM 54.0 °F 25.0 °F 33% 29.98 in 10.0 mi NNE 9.2 mph - N/A   Scattered Clouds
8:55 AM 55.9 °F 26.1 °F 32% 30.01 in 10.0 mi NNE 10.4 mph - N/A   Scattered Clouds
9:55 AM 61.0 °F 26.1 °F 26% 30.04 in 10.0 mi NE 11.5 mph - N/A   Scattered Clouds
10:55 AM 64.0 °F 26.1 °F 24% 30.05 in 10.0 mi NE 9.2 mph - N/A   Scattered Clouds
11:55 AM 68.0 °F 27.0 °F 21% 30.02 in 10.0 mi NNE 10.4 mph - N/A   Partly Cloudy
12:55 PM 72.0 °F 27.0 °F 19% 29.99 in 10.0 mi NE 5.8 mph - N/A   Partly Cloudy
1:55 PM 75.0 °F 27.0 °F 17% 29.96 in 10.0 mi Variable 3.5 mph - N/A   Partly Cloudy
2:55 PM 75.9 °F 25.0 °F 15% 29.95 in 10.0 mi NE 3.5 mph - N/A   Clear
3:55 PM 77.0 °F 25.0 °F 15% 29.94 in 10.0 mi ENE 3.5 mph - N/A   Partly Cloudy
4:55 PM 75.9 °F 25.0 °F 15% 29.94 in 10.0 mi Calm Calm - N/A   Clear
5:55 PM 71.1 °F 30.9 °F 23% 29.94 in 10.0 mi Calm Calm - N/A   Clear
6:55 PM 64.0 °F 33.1 °F 31% 29.94 in 10.0 mi Calm Calm - N/A   Clear
7:55 PM 61.0 °F 35.1 °F 38% 29.94 in 10.0 mi Calm Calm - N/A   Clear
8:55 PM 57.0 °F 34.0 °F 42% 29.94 in 10.0 mi SSE 3.5 mph - N/A   Clear
9:55 PM 55.9 °F 34.0 °F 44% 29.95 in 10.0 mi Calm Calm - N/A   Clear
10:55 PM 55.9 °F 30.0 °F 37% 29.95 in 10.0 mi Calm Calm - N/A   Clear
11:55 PM 54.0 °F 32.0 °F 43% 29.95 in 10.0 mi Calm Calm - N/A   Clear